DELTA 1 DEB, 42645

Orbit data source: Space-Track

DELTA 1 DEB, 42645 is space debris in SSO originally from a launch on Thu, 12 Jun 1975 UTC launched from the Air Force Western Test Range (AFWTR). Debris objects in space refer to the collection of defunct objects orbiting the Earth. Examples of debris include non-operational satellites, rocket bodies, and fragments generated from explosions, collisions, or faulty payload assembly.

Loading next visibility...
Identifier
42645, 1975-052ME
Orbit
SSO
Country
Flag of USUS
Related business
Manufacturer
Unknown
Mission
Spacecraft
Bus & Motor
Unknown
Mass
Unknown
Launch date (UTC)
1975-06-12 (50 years ago)
Launch vehicle
Unknown
Launch site
Air Force Western Test Range (AFWTR)
Object type
Payload
Rocket body
Debris
Shape & HBR
Unknown shape, 0.1 m
Radar Cross Section
Small (<0.1 m²)

Expand to show TLE details & history
Last TLE update: 1 week ago

TLE from 1 week ago
0 DELTA 1 DEB
1 42645U 75052ME  25279.04515567 -.00000071  00000-0 -11490-3 0  9996
2 42645  99.7328 201.3401 0270372  49.8574 331.7779 12.90053558430136
Epoch: 2025-10-06T01:05Z
TLE epoch observation values (Epoch: 2025-10-06T01:05:01.449Z)
Latitude
19.82743°
Longitude
166.60255°
Altitude
1,121.928 km
Speed
7.379 km/s
True Right ascension
13h 11m 15s
True Declination
19° 43' 24"
Sunlit
Object was in daylight at epoch
Visualization orbit readout
Latitude
Unknown
Longitude
Unknown
Altitude
Unknown
Speed
Unknown
Apparent Right ascension
Unknown
Apparent Declination
Unknown
Sunlit
N/A
Visualization observer readout
Local Sidereal Time
04:37:34
Azimuth
Unknown
Elevation
Unknown
Doppler factor
Unknown
Orbital elements
Apogee altitude
1,506.252 km
Perigee altitude
1,091.132 km
Semi-major axis
7,676.829 km
Eccentricity
0.02704
Inclination
99.7328°
RAAN
201.3401°
Arg. of periapsis
49.8574°
True anomaly
330.26804°
Mean anomaly
331.7779°
Eccentric anomaly
331.02752°
Mean motion
3.22679 °/min
Orbital period
111.57 mins
BSTAR
-0.0001149
Loading maneuver chart data...
Computing Atmospheric mass density...
Loading historical data...
Loading historical data...
Loading historical data...
Loading historical data...
Loading historical data...
Loading historical data...
Loading historical data...

Documentation

Showing up to 5 results
|